• In Belgium
  • List of Countries
  • For 7 days
  • Water Temperature
  • Satellite Maps
  • Weather Map
  • Weather Widgets
  • user-avatar
    Login

    Hourly Weather Sabaudia

    Today, 15 July, Sunday

    Time Temperature Precipitation Wind Pressure Humidity
    00:00 +15°C° 0 mm 4 mps 733 mmHg 95%
    01:00 +15°C° 0 mm 4 mps 733 mmHg 96%
    02:00 +14°C° 0 mm 3 mps 733 mmHg 98%
    03:00 +16°C° 0.3 mm 3 mps 733 mmHg 97%
    04:00 +15°C° 0.3 mm 4 mps 733 mmHg 97%
    05:00 +15°C° 0.3 mm 4 mps 733 mmHg 97%
    06:00 +15°C° 0.1 mm 4 mps 733 mmHg 96%
    07:00 +15°C° 0.1 mm 4 mps 733 mmHg 95%
    08:00 +17°C° 0 mm 4 mps 733 mmHg 95%
    09:00 +17°C° 0.2 mm 4 mps 733 mmHg 93%
    10:00 +17°C° 0.2 mm 5 mps 733 mmHg 91%
    11:00 +17°C° 0.2 mm 5 mps 733 mmHg 90%
    12:00 +19°C° 0.5 mm 5 mps 733 mmHg 87%
    13:00 +20°C° 0.5 mm 5 mps 733 mmHg 84%
    14:00 +20°C° 0 mm 5 mps 733 mmHg 84%
    15:00 +20°C° 0.8 mm 5 mps 732 mmHg 84%
    16:00 +20°C° 0.8 mm 5 mps 732 mmHg 84%
    17:00 +20°C° 0.8 mm 5 mps 732 mmHg 85%
    18:00 +19°C° 0.4 mm 5 mps 732 mmHg 87%
    19:00 +19°C° 0.4 mm 4 mps 732 mmHg 90%
    20:00 +18°C° 0.4 mm 3 mps 732 mmHg 92%
    21:00 +17°C° 0.2 mm 3 mps 732 mmHg 94%
    22:00 +17°C° 0.2 mm 3 mps 732 mmHg 95%
    23:00 +16°C° 0.2 mm 3 mps 732 mmHg 96%

    Tomorrow, 16 July, Monday

    Time Temperature Precipitation Wind Pressure Humidity
    00:00 +16°C° 0.5 mm 3 mps 732 mmHg 97%
    01:00 +16°C° 0.5 mm 3 mps 732 mmHg 97%
    02:00 +16°C° 0.5 mm 3 mps 732 mmHg 97%
    03:00 +16°C° 0.9 mm 3 mps 732 mmHg 97%
    04:00 +16°C° 0.9 mm 3 mps 732 mmHg 98%
    05:00 +15°C° 0.9 mm 4 mps 732 mmHg 98%
    06:00 +15°C° 0.7 mm 4 mps 732 mmHg 97%
    07:00 +17°C° 0.7 mm 4 mps 732 mmHg 96%
    08:00 +17°C° 0.7 mm 4 mps 732 mmHg 95%
    09:00 +18°C° 0.3 mm 4 mps 731 mmHg 93%
    10:00 +19°C° 0.3 mm 4 mps 731 mmHg 91%
    11:00 +19°C° 0.3 mm 5 mps 731 mmHg 88%
    12:00 +20°C° 0.3 mm 5 mps 731 mmHg 85%
    13:00 +21°C° 0.3 mm 5 mps 731 mmHg 82%
    14:00 +22°C° 0.3 mm 5 mps 731 mmHg 79%
    15:00 +22°C° 0.7 mm 4 mps 730 mmHg 79%
    16:00 +23°C° 0.7 mm 4 mps 730 mmHg 78%
    17:00 +23°C° 0.7 mm 4 mps 730 mmHg 78%
    18:00 +22°C° 0.8 mm 4 mps 730 mmHg 82%
    19:00 +21°C° 0.8 mm 3 mps 730 mmHg 86%
    20:00 +20°C° 0.8 mm 3 mps 729 mmHg 91%
    21:00 +19°C° 0.7 mm 2 mps 729 mmHg 92%
    22:00 +18°C° 0.7 mm 2 mps 729 mmHg 94%
    23:00 +17°C° 0.7 mm 2 mps 729 mmHg 96%

    Day after tomorrow, 17 July, Tuesday

    Time Temperature Precipitation Wind Pressure Humidity
    00:00 +17°C° 0 mm 2 mps 729 mmHg 96%
    01:00 +17°C° 0 mm 2 mps 729 mmHg 96%
    02:00 +16°C° 0 mm 2 mps 729 mmHg 97%
    03:00 +16°C° 0 mm 2 mps 729 mmHg 97%
    04:00 +16°C° 0 mm 2 mps 729 mmHg 98%
    05:00 +16°C° 0 mm 2 mps 729 mmHg 98%
    06:00 +16°C° 0 mm 2 mps 729 mmHg 96%
    07:00 +17°C° 0 mm 3 mps 729 mmHg 94%
    08:00 +18°C° 0 mm 3 mps 729 mmHg 92%
    09:00 +19°C° 0.1 mm 3 mps 729 mmHg 89%
    10:00 +20°C° 0.1 mm 3 mps 729 mmHg 86%
    11:00 +21°C° 0.1 mm 3 mps 728 mmHg 83%
    12:00 +21°C° 0.3 mm 3 mps 728 mmHg 82%
    13:00 +21°C° 0.3 mm 4 mps 728 mmHg 80%
    14:00 +22°C° 0.3 mm 4 mps 728 mmHg 79%
    15:00 +21°C° 0.3 mm 4 mps 728 mmHg 81%
    16:00 +21°C° 0.3 mm 4 mps 727 mmHg 83%
    17:00 +21°C° 0.3 mm 4 mps 727 mmHg 85%
    18:00 +20°C° 0.4 mm 3 mps 727 mmHg 88%
    19:00 +19°C° 0.4 mm 3 mps 727 mmHg 91%
    20:00 +19°C° 0.4 mm 3 mps 727 mmHg 94%
    21:00 +18°C° 0.8 mm 3 mps 727 mmHg 95%
    22:00 +18°C° 0.8 mm 4 mps 726 mmHg 96%
    23:00 +18°C° 0.8 mm 4 mps 726 mmHg 96%

    18 July, Wednesday

    Time Temperature Precipitation Wind Pressure Humidity
    00:00 +18°C° 0.4 mm 4 mps 726 mmHg 97%
    01:00 +18°C° 0.4 mm 4 mps 726 mmHg 97%
    02:00 +18°C° 0.4 mm 4 mps 726 mmHg 97%
    03:00 +18°C° 0.3 mm 4 mps 726 mmHg 97%
    04:00 +18°C° 0.3 mm 3 mps 726 mmHg 97%
    05:00 +18°C° 0.3 mm 3 mps 725 mmHg 98%
    06:00 +19°C° 0.1 mm 3 mps 726 mmHg 97%
    07:00 +19°C° 0.1 mm 3 mps 726 mmHg 95%
    08:00 +20°C° 0.1 mm 3 mps 726 mmHg 94%
    09:00 +21°C° 0.1 mm 3 mps 726 mmHg 92%
    10:00 +21°C° 0.1 mm 3 mps 726 mmHg 89%
    11:00 +22°C° 0.1 mm 3 mps 727 mmHg 87%
    12:00 +24°C° 0.3 mm 3 mps 727 mmHg 85%
    13:00 +24°C° 0.3 mm 3 mps 727 mmHg 83%
    14:00 +25°C° 0.3 mm 3 mps 727 mmHg 82%
    15:00 +25°C° 0.6 mm 3 mps 727 mmHg 81%
    16:00 +26°C° 0.6 mm 3 mps 727 mmHg 81%
    17:00 +26°C° 0.6 mm 3 mps 728 mmHg 81%
    18:00 +25°C° 0.4 mm 3 mps 728 mmHg 85%
    19:00 +24°C° 0.4 mm 2 mps 728 mmHg 88%
    20:00 +23°C° 0.4 mm 2 mps 728 mmHg 91%
    21:00 +21°C° 0.2 mm 2 mps 728 mmHg 93%
    22:00 +21°C° 0.2 mm 2 mps 728 mmHg 94%
    23:00 +20°C° 0.2 mm 2 mps 729 mmHg 95%

    19 July, Thursday

    Time Temperature Precipitation Wind Pressure Humidity
    00:00 +20°C° 0.1 mm 2 mps 729 mmHg 96%
    01:00 +20°C° 0.1 mm 2 mps 729 mmHg 96%
    02:00 +19°C° 0.1 mm 2 mps 729 mmHg 97%
    03:00 +19°C° 0 mm 2 mps 729 mmHg 97%
    04:00 +19°C° 0 mm 2 mps 729 mmHg 97%
    05:00 +19°C° 0 mm 3 mps 730 mmHg 98%
    06:00 +20°C° 0.2 mm 3 mps 730 mmHg 96%
    07:00 +21°C° 0.2 mm 3 mps 730 mmHg 95%
    08:00 +22°C° 0.2 mm 4 mps 731 mmHg 93%
    09:00 +22°C° 0.5 mm 4 mps 731 mmHg 91%
    10:00 +23°C° 0.5 mm 4 mps 731 mmHg 89%
    11:00 +25°C° 0.5 mm 5 mps 731 mmHg 87%
    12:00 +25°C° 0.6 mm 5 mps 731 mmHg 85%
    13:00 +25°C° 0.6 mm 5 mps 731 mmHg 83%
    14:00 +24°C° 0.6 mm 6 mps 731 mmHg 81%
    15:00 +26°C° 0.3 mm 6 mps 731 mmHg 80%
    16:00 +26°C° 0.3 mm 6 mps 732 mmHg 78%
    17:00 +26°C° 0.3 mm 6 mps 732 mmHg 77%
    18:00 +25°C° 0.2 mm 5 mps 732 mmHg 80%
    19:00 +23°C° 0.2 mm 5 mps 732 mmHg 83%
    20:00 +22°C° 0.2 mm 4 mps 732 mmHg 87%
    21:00 +21°C° 0 mm 4 mps 732 mmHg 88%
    22:00 +21°C° 0 mm 4 mps 732 mmHg 90%
    23:00 +20°C° 0 mm 4 mps 732 mmHg 92%

    20 July, Friday

    Time Temperature Precipitation Wind Pressure Humidity
    00:00 +20°C° 0 mm 4 mps 732 mmHg 93%
    01:00 +19°C° 0 mm 4 mps 732 mmHg 95%
    02:00 +19°C° 0 mm 4 mps 732 mmHg 96%
    03:00 +19°C° 0 mm 4 mps 732 mmHg 97%
    04:00 +19°C° 0 mm 4 mps 732 mmHg 97%
    05:00 +18°C° 0 mm 4 mps 732 mmHg 97%
    06:00 +19°C° 0 mm 4 mps 733 mmHg 95%
    07:00 +19°C° 0 mm 4 mps 733 mmHg 94%
    08:00 +20°C° 0 mm 4 mps 733 mmHg 93%
    09:00 +21°C° 0 mm 4 mps 733 mmHg 89%
    10:00 +22°C° 0 mm 4 mps 733 mmHg 86%
    11:00 +22°C° 0 mm 4 mps 733 mmHg 83%
    12:00 +25°C° 0.2 mm 4 mps 733 mmHg 78%
    13:00 +26°C° 0.2 mm 3 mps 733 mmHg 73%
    14:00 +27°C° 0.2 mm 3 mps 733 mmHg 69%
    15:00 +27°C° 0.4 mm 3 mps 733 mmHg 70%
    16:00 +27°C° 0.4 mm 3 mps 733 mmHg 71%
    17:00 +27°C° 0.4 mm 3 mps 733 mmHg 72%
    18:00 +26°C° 0.2 mm 3 mps 733 mmHg 77%
    19:00 +24°C° 0.2 mm 2 mps 733 mmHg 81%
    20:00 +23°C° 0.2 mm 2 mps 733 mmHg 85%
    21:00 +23°C° 0.1 mm 2 mps 733 mmHg 87%
    22:00 +21°C° 0.1 mm 2 mps 733 mmHg 90%
    23:00 +20°C° 0.1 mm 2 mps 733 mmHg 92%
    Show more